This demonstration page uses our WeatherBlox Daily Observations layout. Learn more.

Left ArrowRight Arrow

Hourly Observations for October 6, 2020

Temp ( °F °C ) Dew Point ( °F °C ) Humidity (%) Winds ( mph kmh ) Pressure ( in mb ) Visibility ( mi km ) Precip ( " mm )
12:15 am 00:15 Clear 46 8 41 5 82 82 SSE 6 9 30.14 1021 10 16 N/A
12:35 am 00:35 Clear 45 7 41 5 87 87 S 6 9 30.13 1020 10 16 N/A
12:55 am 00:55 Clear 45 7 41 5 87 87 S 6 9 30.13 1020 10 16 N/A
1:15 am 01:15 Clear 45 7 41 5 87 87 S 5 7 30.12 1020 10 16 N/A
1:35 am 01:35 Clear 45 7 41 5 87 87 S 3 6 30.12 1020 10 16 N/A
1:55 am 01:55 Clear 45 7 41 5 87 87 S 6 9 30.12 1020 10 16 N/A
2:15 am 02:15 Clear 43 6 41 5 93 93 S 5 7 30.12 1020 10 16 N/A
2:35 am 02:35 Clear 43 6 41 5 93 93 S 5 7 30.12 1020 10 16 N/A
2:55 am 02:55 Clear 43 6 41 5 93 93 S 6 9 30.12 1020 10 16 N/A
3:15 am 03:15 Clear 43 6 43 6 100 100 S 6 9 30.11 1020 10 16 N/A
3:35 am 03:35 Clear 43 6 43 6 100 100 S 6 9 30.11 1020 10 16 N/A
3:55 am 03:55 Clear 43 6 43 6 100 100 S 6 9 30.11 1020 10 16 N/A
4:15 am 04:15 Partly Cloudy 43 6 43 6 100 100 S 5 7 30.11 1020 10 16 N/A
4:35 am 04:35 Partly Cloudy 43 6 43 6 100 100 S 5 7 30.11 1020 10 16 N/A
4:55 am 04:55 Clear 41 5 41 5 100 100 S 5 7 30.12 1020 10 16 N/A
5:15 am 05:15 Clear 41 5 41 5 100 100 S 7 11 30.12 1020 10 16 N/A
5:35 am 05:35 Clear 41 5 41 5 100 100 SSE 8 13 30.12 1020 10 16 N/A
5:55 am 05:55 Partly Cloudy 41 5 41 5 100 100 SSE 8 13 30.12 1020 10 16 N/A
6:15 am 06:15 Clear 43 6 43 6 100 100 S 7 11 30.10 1019 10 16 N/A
6:35 am 06:35 Clear 43 6 43 6 100 100 S 7 11 30.10 1019 10 16 N/A
6:55 am 06:55 Clear 43 6 43 6 100 100 S 6 9 30.10 1019 10 16 N/A
7:15 am 07:15 Clear 43 6 43 6 100 100 S 7 11 30.10 1019 10 16 N/A
7:35 am 07:35 Clear 41 5 41 5 100 100 S 7 11 30.11 1020 10 16 N/A
7:55 am 07:55 Sunny 43 6 43 6 100 100 S 8 13 30.09 1019 10 16 N/A
8:15 am 08:15 Sunny 43 6 43 6 100 100 S 9 15 30.09 1019 10 16 N/A
8:35 am 08:35 Sunny 43 6 43 6 100 100 S 7 11 30.09 1019 10 16 N/A
8:55 am 08:55 Sunny 45 7 45 7 100 100 S 7 11 30.09 1019 10 16 N/A
9:15 am 09:15 Sunny 46 8 46 8 100 100 SSW 8 13 30.09 1019 10 16 N/A
9:35 am 09:35 Sunny 48 9 46 8 94 94 S 10 17 30.08 1019 10 16 N/A
9:55 am 09:55 Sunny 50 10 46 8 88 88 S 9 15 30.08 1019 10 16 N/A
10:15 am 10:15 Sunny 52 11 46 8 82 82 S 9 15 30.08 1019 10 16 N/A
10:35 am 10:35 Sunny 55 13 48 9 77 77 S 9 15 30.06 1018 10 16 N/A
10:55 am 10:55 Sunny 57 14 48 9 72 72 S 9 15 30.06 1018 10 16 N/A
11:15 am 11:15 Sunny 59 15 46 8 63 63 SSW 12 19 30.04 1017 10 16 N/A
11:36 am 11:36 Sunny 63 17 46 8 56 56 SW 15 24 30.04 1017 10 16 N/A
11:55 am 11:55 Sunny 64 18 46 8 52 52 SW 17 28 30.04 1017 10 16 N/A
12:15 pm 12:15 Sunny 64 18 46 8 52 52 SW 14 22 30.03 1017 10 16 N/A
12:35 pm 12:35 Sunny 64 18 48 9 56 56 SSW 13 20 30.02 1017 10 16 N/A
12:55 pm 12:55 Sunny 68 20 48 9 49 49 SSW 13 20 30.01 1016 10 16 N/A
1:15 pm 13:15 Sunny 68 20 50 10 53 53 SSW 17 28 29.99 1016 10 16 N/A
1:35 pm 13:35 Sunny 70 21 50 10 50 50 SSW 16 26 29.99 1015 10 16 N/A
1:55 pm 13:55 Sunny 70 21 50 10 50 50 SW 13 20 29.98 1015 10 16 N/A
2:15 pm 14:15 Sunny 72 22 50 10 47 47 SW 17 28 29.96 1015 10 16 N/A
2:35 pm 14:35 Sunny 72 22 50 10 47 47 SW 17 28 29.95 1014 10 16 N/A
2:55 pm 14:55 Sunny 73 23 52 11 47 47 SSW 15 24 29.94 1014 10 16 N/A
3:15 pm 15:15 Sunny 73 23 50 10 44 44 SW 16 26 29.94 1014 10 16 N/A
3:35 pm 15:35 Sunny 73 23 50 10 44 44 SW 15 24 29.93 1014 10 16 N/A
3:55 pm 15:55 Sunny 73 23 52 11 47 47 SSW 17 28 29.92 1013 10 16 N/A
4:15 pm 16:15 Sunny 73 23 50 10 44 44 SW 16 26 29.91 1013 10 16 N/A
4:35 pm 16:35 Sunny 75 24 52 11 44 44 SSW 16 26 29.90 1012 10 16 N/A
4:55 pm 16:55 Sunny 75 24 50 10 41 41 SSW 14 22 29.90 1012 10 16 N/A
5:15 pm 17:15 Sunny 75 24 50 10 41 41 SSW 16 26 29.90 1012 10 16 N/A
5:35 pm 17:35 Sunny 75 24 50 10 41 41 SW 15 24 29.90 1012 10 16 N/A
5:55 pm 17:55 Sunny 73 23 50 10 44 44 SW 14 22 29.91 1013 10 16 N/A
6:15 pm 18:15 Sunny 73 23 50 10 44 44 SW 17 28 29.91 1013 10 16 N/A
6:35 pm 18:35 Sunny 72 22 50 10 47 47 SW 13 20 29.91 1013 10 16 N/A
6:55 pm 18:55 Sunny 72 22 50 10 47 47 SSW 9 15 29.93 1014 10 16 N/A
7:15 pm 19:15 Sunny 70 21 50 10 50 50 SSW 9 15 29.93 1013 10 16 N/A
7:35 pm 19:35 Clear 66 19 50 10 56 56 S 6 9 29.92 1013 10 16 N/A
7:55 pm 19:55 Clear 64 18 48 9 56 56 S 7 11 29.93 1014 10 16 N/A
8:15 pm 20:15 Clear 64 18 50 10 60 60 S 7 11 29.93 1014 10 16 N/A
8:35 pm 20:35 Clear 64 18 50 10 60 60 S 10 17 29.93 1014 10 16 N/A
8:55 pm 20:55 Clear 63 17 50 10 64 64 S 8 13 29.94 1014 10 16 N/A
9:15 pm 21:15 Clear 63 17 50 10 64 64 S 9 15 29.93 1013 10 16 N/A
9:35 pm 21:35 Clear 63 17 50 10 64 64 S 8 13 29.93 1013 10 16 N/A
9:55 pm 21:55 Clear 61 16 50 10 68 68 SSW 8 13 29.94 1014 10 16 N/A
10:15 pm 22:15 Clear 59 15 50 10 72 72 S 8 13 29.93 1014 10 16 N/A
10:35 pm 22:35 Clear 59 15 50 10 72 72 S 7 11 29.94 1014 10 16 N/A
10:55 pm 22:55 Clear 57 14 50 10 77 77 S 6 9 29.95 1014 10 16 N/A
11:15 pm 23:15 Clear 57 14 50 10 77 77 S 7 11 29.95 1014 10 16 N/A
11:35 pm 23:35 Clear 55 13 50 10 82 82 S 6 9 29.95 1014 10 16 N/A
11:55 pm 23:55 Clear 55 13 50 10 82 82 S 7 11 29.95 1014 10 16 N/A

Powered by AerisWeather